STARLINK-31680, 59380

Orbit data source: Space-Track

STARLINK-31680, 59380 is a payload satellite owned by SpaceX/Seattle (US) in LEO that was launched on Tue, 02 Apr 2024 UTC via an FALCON 9 launch vehicle from the Air Force Western Test Range (AFWTR). Payload-class satellites include a variety of spacecraft equipped with specific instruments for various scientific and technological missions. These include communications satellites like Starlink; space stations such as the ISS; scientific satellites like the Hubble; Earth observation satellites from companies like Planet Labs, Umbra, and HawkEye 360; GPS; miniature CubeSats for education and research; and military/defense satellites.

Loading next visibility...
Identifier
59380, 2024-062G
Orbit
LEO
Country
Flag of USUS
Related business
Manufacturer
SpaceX/Seattle
Mission
Operational Commercial Communications
Bus & Motor
STARLINK V2M, Unknown motor
Mass
730 kg wet, ~700 kg dry
Launch date (UTC)
2024-04-02 (2 years ago)
Launch vehicle
FALCON 9
Launch site
Air Force Western Test Range (AFWTR)
Object type
Payload
Rocket body
Debris
Shape & HBR
Box + 2 Pan, 17.7 m
Radar Cross Section
33.884 m², Large (>1 m²)

Expand to show TLE details & history
Last TLE update: 3 days ago

TLE from 3 days ago
0 STARLINK-31680
1 59380U 24062G   26170.20558957  .00004726  00000-0  15107-3 0  9992
2 59380  53.1599 145.5803 0001142  86.6090 273.5043 15.34370379125152
Epoch: 2026-06-19T04:56Z
TLE epoch observation values (Epoch: 2026-06-19T04:56:02.938Z)
Latitude
-0.00006°
Longitude
164.13011°
Altitude
463.645 km
Speed
7.636 km/s
True Right ascension
09h 42m 19s
True Declination
0° 00' 00"
Sunlit
Object was in daylight at epoch
Visualization orbit readout
Latitude
Unknown
Longitude
Unknown
Altitude
Unknown
Speed
Unknown
Apparent Right ascension
Unknown
Apparent Declination
Unknown
Sunlit
N/A
Visualization observer readout
Local Sidereal Time
21:32:13
Azimuth
Unknown
Elevation
Unknown
Doppler factor
Unknown
Orbital elements
Apogee altitude
463.829 km
Perigee altitude
462.267 km
Semi-major axis
6,841.185 km
Eccentricity
0.00011
Inclination
53.1599°
RAAN
145.5803°
Arg. of periapsis
86.609°
True anomaly
273.49124°
Mean anomaly
273.5043°
Eccentric anomaly
273.49777°
Mean motion
3.83571 °/min
Orbital period
93.85 mins
BSTAR
0.00015107
Loading maneuver chart data...
Computing Atmospheric mass density...
Loading historical data...
Loading historical data...
Loading historical data...
Loading historical data...
Loading historical data...
Loading historical data...
Loading historical data...

Documentation

Showing up to 5 results
|